This is the latest recevied weather packets stored in our database for station/object WA3NOA-2. If no packets are shown the sender has not sent any weather packets the latest 10 day(s).
| Time | Temp. | Humidity | Pressure | Rain* | Wind** | Luminosity | Snow |
|---|---|---|---|---|---|---|---|
| 1777518427 | 8.33° C | 92% | 1002.4 hPa | 3.3 mm | - | - | - |
| 1777518189 | 8.33° C | 92% | 1002 hPa | 2.79 mm | - | - | - |
| 1777518127 | 8.33° C | 92% | 1002.2 hPa | 2.79 mm | - | - | - |
| 1777517827 | 8.33° C | 91% | 1002.7 hPa | 2.54 mm | - | - | - |
| 1777517527 | 8.33° C | 91% | 1002.3 hPa | 2.03 mm | - | - | - |
| 1777517288 | 8.33° C | 91% | 1002.4 hPa | 1.52 mm | - | - | - |
| 1777517227 | 8.33° C | 91% | 1002.4 hPa | 1.52 mm | - | - | - |
| 1777516927 | 8.33° C | 91% | 1002.8 hPa | 1.52 mm | - | - | - |
| 1777516627 | 8.33° C | 91% | 1002.6 hPa | 1.78 mm | - | - | - |
| 1777516388 | 8.33° C | 91% | 1002.6 hPa | 1.52 mm | - | - | - |
| 1777516327 | 8.33° C | 91% | 1002.5 hPa | 1.52 mm | - | - | - |
| 1777516027 | 8.33° C | 91% | 1002.7 hPa | 1.02 mm | - | - | - |
| 1777515727 | 8.33° C | 91% | 1002.9 hPa | 1.27 mm | - | - | - |
| 1777515489 | 8.33° C | 91% | 1002.9 hPa | 1.27 mm | - | - | - |
| 1777515427 | 8.33° C | 91% | 1002.6 hPa | 1.27 mm | - | - | - |
| 1777515127 | 8.33° C | 90% | 1002.2 hPa | 1.02 mm | - | - | - |
| 1777514827 | 8.33° C | 90% | 1001.9 hPa | 0.76 mm | - | - | - |
| 1777514588 | 8.33° C | 90% | 1002.3 hPa | 0.76 mm | - | - | - |
| 1777514527 | 8.33° C | 90% | 1002.3 hPa | 0.76 mm | - | - | - |
| 1777514227 | 8.33° C | 90% | 1002.6 hPa | 0.51 mm | - | - | - |
| 1777513927 | 8.33° C | 89% | 1002.4 hPa | 0.51 mm | - | - | - |
| 1777513689 | 8.33° C | 89% | 1002.6 hPa | 0.51 mm | - | - | - |
| 1777513627 | 8.33° C | 89% | 1002.7 hPa | 0.51 mm | - | - | - |
| 1777513327 | 8.33° C | 89% | 1003 hPa | 0.51 mm | - | - | - |
| 1777513027 | 8.33° C | 89% | 1003.3 hPa | 0.51 mm | - | - | - |
* Rain latest hour (hover to see other rain measurements)
** Current wind speed in m/s (hover to see current wind gust speed)